SERT 2

Last updated on Sun Jun 21 2026 00:02:14 GMT+0000 (Coordinated Universal Time)

1 04327U 70009A 26171.43080145 .00000008 00000+0 67682-4 0 9994 2 04327 99.2841 108.9699 0003929 263.0931 205.2164 13.58739486793845
UTC large
Height (km)
Speed (km/s)
/
Latitude / Longitude
Inclination (degrees)
Orbital Period (minutes)
Azimuth
Elevation
Range (km)
Doppler Factor

Next 0 passes for location: London (51.5072 / 0.1276)

No passes found over London.
SERT 2